Estación de Yerbas Buenas
Ultimos registro cada 15 minutos 35
| N° | Estación | Fecha / Hora | Temperatura | Humedad | Lluvia | Velocidad | Dirección | Radiación | Presion |
| 35 | Yerbas Buenas | 05-05-2026 08:30 | 12,2 | 93,6 | 0 | 0 | 108 | 43,1 | 997,2 |
| 34 | Yerbas Buenas | 05-05-2026 08:15 | 12,1 | 93,6 | 0 | 0 | 136 | 28,1 | 997,2 |
| 33 | Yerbas Buenas | 05-05-2026 08:00 | 12 | 93,6 | 0 | 0 | 284 | 26,9 | 997,5 |
| 32 | Yerbas Buenas | 05-05-2026 07:45 | 11,9 | 93,7 | 0 | 0 | 271 | 6,9 | 997,8 |
| 31 | Yerbas Buenas | 05-05-2026 07:30 | 11,8 | 93,6 | 0 | 0 | 104 | 0,6 | 997,4 |
| 30 | Yerbas Buenas | 05-05-2026 07:15 | 12 | 93,7 | 0 | 0 | 145 | 0,6 | 997,1 |
| 29 | Yerbas Buenas | 05-05-2026 07:00 | 12,1 | 93,7 | 0 | 0 | 48 | 0,6 | 997,9 |
| 28 | Yerbas Buenas | 05-05-2026 06:45 | 11,9 | 93,7 | 0 | 0 | 292 | 0,6 | 997,4 |
| 27 | Yerbas Buenas | 05-05-2026 06:30 | 12 | 93,7 | 0 | 0 | 317 | 0,6 | 997,8 |
| 26 | Yerbas Buenas | 05-05-2026 06:15 | 11,8 | 93,7 | 0 | 0 | 324 | 0,6 | 997,8 |
| 25 | Yerbas Buenas | 05-05-2026 06:00 | 11,6 | 93,6 | 0 | 0 | 7 | 0,6 | 998,1 |
| 24 | Yerbas Buenas | 05-05-2026 05:45 | 11,6 | 93,8 | 0 | 0 | 264 | 0,6 | 997,9 |
| 23 | Yerbas Buenas | 05-05-2026 05:30 | 11,4 | 94,1 | 0 | 0,5 | 63 | 0,6 | 998,2 |
| 22 | Yerbas Buenas | 05-05-2026 05:15 | 11,1 | 94,1 | 0 | 0 | 108 | 0,6 | 996,9 |
| 21 | Yerbas Buenas | 05-05-2026 05:00 | 11,2 | 94,1 | 0 | 0 | 91 | 0,6 | 998,2 |
| 20 | Yerbas Buenas | 05-05-2026 04:45 | 11,1 | 94,1 | 0 | 0 | 91 | 0,6 | 997,4 |
| 19 | Yerbas Buenas | 05-05-2026 04:30 | 11,1 | 94,1 | 0 | 0 | 337 | 0,6 | 998,8 |
| 18 | Yerbas Buenas | 05-05-2026 04:15 | 11 | 94,1 | 0 | 0 | 265 | 0,6 | 998,3 |
| 17 | Yerbas Buenas | 05-05-2026 04:00 | 10,9 | 94 | 0 | 0 | 265 | 0,6 | 997,8 |
| 16 | Yerbas Buenas | 05-05-2026 03:45 | 10,7 | 94 | 0 | 0 | 265 | 0,6 | 997,6 |
| 15 | Yerbas Buenas | 05-05-2026 03:30 | 10,8 | 94 | 0 | 0 | 265 | 0,6 | 998,1 |
| 14 | Yerbas Buenas | 05-05-2026 03:15 | 10,8 | 94 | 0 | 0 | 265 | 0,6 | 998,2 |
| 13 | Yerbas Buenas | 05-05-2026 03:00 | 10,8 | 94 | 0 | 0 | 265 | 0,6 | 998 |
| 12 | Yerbas Buenas | 05-05-2026 02:45 | 10,7 | 93,9 | 0 | 0 | 265 | 0,6 | 997,7 |
| 11 | Yerbas Buenas | 05-05-2026 02:30 | 10,6 | 93,9 | 0 | 0 | 265 | 0,6 | 998 |
| 10 | Yerbas Buenas | 05-05-2026 02:15 | 10,7 | 93,9 | 0 | 0 | 265 | 0,6 | 998,1 |
| 9 | Yerbas Buenas | 05-05-2026 02:00 | 10,6 | 93,8 | 0 | 0 | 265 | 0,6 | 998,4 |
| 8 | Yerbas Buenas | 05-05-2026 01:45 | 10,6 | 93,8 | 0 | 0 | 265 | 0,6 | 998,6 |
| 7 | Yerbas Buenas | 05-05-2026 01:30 | 10,6 | 93,8 | 0 | 0 | 265 | 0,6 | 998,5 |
| 6 | Yerbas Buenas | 05-05-2026 01:15 | 10,8 | 93,7 | 0 | 0 | 265 | 0,6 | 998,6 |
| 5 | Yerbas Buenas | 05-05-2026 01:00 | 10,8 | 93,7 | 0 | 0 | 265 | 0,6 | 998,7 |
| 4 | Yerbas Buenas | 05-05-2026 00:45 | 11 | 93,7 | 0 | 0 | 265 | 0,6 | 998,7 |
| 3 | Yerbas Buenas | 05-05-2026 00:30 | 11 | 93,6 | 0 | 0 | 265 | 0,6 | 998,8 |
| 2 | Yerbas Buenas | 05-05-2026 00:15 | 11,4 | 93,6 | 0 | 0 | 265 | 0,6 | 998,8 |
| 1 | Yerbas Buenas | 05-05-2026 00:00 | 11,4 | 93,6 | 0 | 0 | 265 | 0,6 | 998,8 |